Weather History for Harrison, AR

Change the Weather History Date:

Monday, August 5, 2013

  Actual Average Record
Temperature  
Mean Temperature 80 °F 79 °F  
Max Temperature 88 °F 90 °F 107 °F (1918)
Min Temperature 71 °F 68 °F 45 °F (1912)
Degree Days  
Heating Degree Days 0 0  
Month to date heating degree days 0 0  
Since 1 June heating degree days 5 6  
Since 1 July heating degree days 0 0  
Cooling Degree Days 15 14  
Month to date cooling degree days 58 70  
Year to date cooling degree days 868 888  
Since 1 June cooling degree days 722 749  
Growing Degree Days 29 (Base 50)    
Moisture  
Dew Point 73 °F    
Average Humidity 77    
Maximum Humidity 93    
Minimum Humidity 61    
Precipitation  
Precipitation 0.06 in 0.13 in 1.96 in (1993)
Month to date precipitation 2.71 0.64  
Year to date precipitation 28.08 26.02  
Snow  
Snow 0.00 in 0.00 in - ()
Month to date snowfall 0.0 0.0  
Since 1 June snowfall 0.0 0.0  
Since 1 July snowfall 0.0 0.0  
Snow Depth 0.00 in    
Sea Level Pressure  
Sea Level Pressure 29.97 in    
Wind  
Wind Speed 7 mph (SE)    
Max Wind Speed 15 mph    
Max Gust Speed 20 mph    
Visibility 8 miles    
Events Rain    
T = Trace of Precipitation, MM = Missing Value Source: NWS Daily Summary

Daily Weather History Graph

Daily Weather History Graph

Search for Another Location

Airport:

Trip Planner

Search our weather history database for the weather conditions in past years. The results will help you decide how hot, cold, wet, or windy it might be!

Date:

Astronomy

Aug. 05, 2013 Rise Set
Actual Time 6:22 AM CDT 8:13 PM CDT
Civil Twilight 5:54 AM CDT 8:41 PM CDT
Nautical Twilight 5:20 AM CDT 9:15 PM CDT
Astronomical Twilight 4:44 AM CDT 9:51 PM CDT
Moon 5:18 AM CDT (8/5) 7:15 PM CDT (8/5)
Length of Visible Light 14h 47m
Length of Day
13h 51m
Waning Crescent, 1% of the Moon is Illuminated
Aug 5
Waning Crescent
Aug 6
New
Aug 14
First Quarter
Aug 20
Full
Aug 28
Last Quarter

Hourly Weather History & Observations

Time (CDT) Temp. Heat Index Dew Point Humidity Pressure Visibility Wind Dir Wind Speed Gust Speed Precip Events Conditions
12:03 AM 71.6 °F - 69.8 °F 94% 30.09 in 8.0 mi SE 8.1 mph - N/A   Mostly Cloudy
12:24 AM 71.6 °F - 69.8 °F 94% 30.10 in 7.0 mi SE 8.1 mph - N/A   Overcast
12:53 AM 71.1 °F - 70.0 °F 96% 30.05 in 7.0 mi SE 9.2 mph - N/A   Overcast
1:53 AM 71.1 °F - 70.0 °F 96% 30.04 in 7.0 mi SE 9.2 mph - N/A   Mostly Cloudy
2:53 AM 71.1 °F - 70.0 °F 96% 30.02 in 5.0 mi SE 11.5 mph - N/A   Overcast
3:53 AM 71.1 °F - 70.0 °F 96% 30.01 in 6.0 mi SE 10.4 mph - N/A   Overcast
4:32 AM 71.6 °F - 69.8 °F 94% 30.05 in 5.0 mi SE 9.2 mph - N/A   Overcast
4:53 AM 71.1 °F - 70.0 °F 96% 30.00 in 6.0 mi SE 9.2 mph - N/A   Mostly Cloudy
5:48 AM 71.6 °F - 69.8 °F 94% 30.04 in 6.0 mi SE 6.9 mph - 0.01 in Rain Light Rain
5:53 AM 71.1 °F - 70.0 °F 96% 30.00 in 7.0 mi SSE 6.9 mph - 0.01 in Rain Light Rain
6:53 AM 72.0 °F - 71.1 °F 97% 29.99 in 6.0 mi SSE 9.2 mph - 0.00 in   Overcast
7:14 AM 71.6 °F - 71.6 °F 100% 30.04 in 2.5 mi East 3.5 mph - 0.02 in Rain Rain
7:32 AM 71.6 °F - 71.6 °F 100% 30.04 in 3.0 mi SSE 6.9 mph - 0.03 in Rain Light Rain
7:53 AM 72.0 °F - 71.1 °F 97% 29.99 in 4.0 mi SSE 10.4 mph - 0.03 in Rain Light Rain
8:53 AM 75.9 °F - 72.0 °F 87% 29.99 in 8.0 mi Variable 4.6 mph - 0.00 in   Mostly Cloudy
9:53 AM 78.1 °F - 73.9 °F 87% 29.99 in 9.0 mi East 5.8 mph - N/A   Mostly Cloudy
10:53 AM 80.1 °F 84.5 °F 73.9 °F 81% 29.98 in 10.0 mi SE 5.8 mph - N/A   Partly Cloudy
11:53 AM 82.9 °F 90.8 °F 75.9 °F 79% 29.96 in 10.0 mi SSE 5.8 mph - N/A   Clear
12:53 PM 86.0 °F 92.2 °F 72.0 °F 63% 29.96 in 10.0 mi West 5.8 mph 17.3 mph N/A   Scattered Clouds
1:53 PM 81.0 °F 86.7 °F 75.0 °F 82% 29.96 in 10.0 mi NNE 5.8 mph - 0.01 in   Overcast
2:53 PM 82.9 °F 90.2 °F 75.0 °F 77% 29.94 in 10.0 mi ENE 4.6 mph - N/A   Overcast
3:53 PM 84.0 °F 93.7 °F 77.0 °F 79% 29.92 in 10.0 mi ESE 6.9 mph - N/A   Scattered Clouds
4:53 PM 86.0 °F 96.9 °F 77.0 °F 74% 29.89 in 10.0 mi SE 9.2 mph - N/A   Clear
5:53 PM 87.1 °F 98.8 °F 77.0 °F 72% 29.88 in 10.0 mi South 8.1 mph - N/A   Clear
6:53 PM 86.0 °F 95.1 °F 75.0 °F 70% 29.86 in 10.0 mi South 6.9 mph - N/A   Clear
7:53 PM 84.0 °F 91.9 °F 75.0 °F 74% 29.88 in 10.0 mi South 3.5 mph - N/A   Scattered Clouds
8:53 PM 80.1 °F 85.8 °F 77.0 °F 90% 29.91 in 10.0 mi ENE 9.2 mph - 0.01 in Rain Light Rain
9:53 PM 75.9 °F - 73.0 °F 91% 29.90 in 10.0 mi SSE 11.5 mph - 0.00 in   Clear
10:53 PM 73.9 °F - 71.1 °F 91% 29.87 in 10.0 mi ESE 8.1 mph - N/A   Clear
11:53 PM 73.9 °F - 71.1 °F 91% 29.89 in 10.0 mi SSE 4.6 mph - 0.00 in   Clear